This is the latest recevied weather packets stored in our database for station/object K3HW. If no packets are shown the sender has not sent any weather packets the latest 10 day(s).
| Time | Temp. | Humidity | Pressure | Rain* | Wind** | Luminosity | Snow |
|---|---|---|---|---|---|---|---|
| 1777998750 | 27.78° C | 42% | 1013.9 hPa | 0 mm | - | 749 W/m² | - |
| 1777998447 | 27.22° C | 42% | 1013.7 hPa | 0 mm | - | 752 W/m² | - |
| 1777998143 | 26.67° C | 41% | 1013.9 hPa | 0 mm | - | 741 W/m² | - |
| 1777997840 | 27.22° C | 43% | 1013.9 hPa | 0 mm | - | 736 W/m² | - |
| 1777997538 | 27.22° C | 42% | 1014 hPa | 0 mm | - | 734 W/m² | - |
| 1777997235 | 27.22° C | 40% | 1014 hPa | 0 mm | - | 717 W/m² | - |
| 1777996933 | 26.67° C | 41% | 1014.1 hPa | 0 mm | - | 729 W/m² | - |
| 1777996629 | 26.67° C | 40% | 1014.1 hPa | 0 mm | - | 729 W/m² | - |
| 1777996326 | 26.67° C | 40% | 1014.1 hPa | 0 mm | - | 714 W/m² | - |
| 1777996022 | 26.67° C | 41% | 1014.1 hPa | 0 mm | - | 712 W/m² | - |
| 1777995718 | 27.22° C | 41% | 1014.1 hPa | 0 mm | - | 705 W/m² | - |
| 1777995415 | 27.22° C | 42% | 1014.1 hPa | 0 mm | - | 684 W/m² | - |
| 1777995112 | 26.67° C | 42% | 1014.2 hPa | 0 mm | - | 692 W/m² | - |
| 1777994809 | 26.67° C | 43% | 1014.3 hPa | 0 mm | - | 683 W/m² | - |
| 1777994504 | 26.11° C | 43% | 1014.1 hPa | 0 mm | - | 677 W/m² | - |
| 1777994200 | 26.11° C | 44% | 1014.4 hPa | 0 mm | - | 666 W/m² | - |
| 1777993898 | 26.11° C | 45% | 1014.2 hPa | 0 mm | - | 654 W/m² | - |
| 1777993593 | 25.56° C | 45% | 1014.2 hPa | 0 mm | - | 637 W/m² | - |
| 1777993291 | 25° C | 46% | 1014.2 hPa | 0 mm | - | 555 W/m² | - |
| 1777992986 | 25° C | 48% | 1014.3 hPa | 0 mm | - | 229 W/m² | - |
| 1777992685 | 24.44° C | 46% | 1014.3 hPa | 0 mm | - | 108 W/m² | - |
| 1777992382 | 24.44° C | 47% | 1014 hPa | 0 mm | - | 138 W/m² | - |
| 1777992080 | 24.44° C | 47% | 1014.1 hPa | 0 mm | - | 128 W/m² | - |
| 1777991777 | 23.89° C | 46% | 1014.1 hPa | 0 mm | - | 222 W/m² | - |
| 1777991474 | 23.89° C | 47% | 1014.2 hPa | 0 mm | - | 64 W/m² | - |
* Rain latest hour (hover to see other rain measurements)
** Current wind speed in m/s (hover to see current wind gust speed)